Regional Weather Roundup
Issued by NWS Cleveland, OH

Home | Current Version | Previous Version | Text Only | Print | Product List | Glossary Off
Versions: 1 2 3 4 5 6 7 8 9 10 11 12 13 14 15 16 17 18 19 20 21 22 23 24 25 26 27 28 29 30 31 32 33 34 35 36 37 38 39 40 41 42 43 44 45 46 47 48 49 50

910
ASUS41 KCLE 231402
RWRCLE
OHIO REGIONAL WEATHER ROUNDUP
NATIONAL WEATHER SERVICE CLEVELAND, OH
1000 AM EDT FRI JUN 23 2017

NOTE: "FAIR" INDICATES FEW OR NO CLOUDS BELOW 12,000 FEET WITH NO
SIGNIFICANT WEATHER AND/OR OBSTRUCTIONS TO VISIBILITY.

OHZ001>008-015>018-024>027-034-035-043-044-231500-
   NORTHWEST OHIO

CITY           SKY/WX    TMP DP  RH WIND       PRES   REMARKS
DEFIANCE       RAIN      70  69  97 VRB5      29.67F FOG
FINDLAY        LGT RAIN  72  67  84 W15       29.67F
TOLEDO EXPRESS HVY RAIN  71  71 100 SW12      29.65R FOG
TOLEDO EXEC    CLOUDY    73  73 100 SW10      29.66R
LIMA           HVY RAIN  70  70 100 W10       29.70F FOG
$$

OHZ009>014-019>023-028>033-038-089-231500-
   NORTHEAST OHIO

CITY           SKY/WX    TMP DP  RH WIND       PRES   REMARKS
CLE-HOPKINS    LGT RAIN  76  72  87 SW13      29.68F FOG
CLE-LAKEFRONT  LGT RAIN  75  71  87 S17G25    29.65F
CUY CO. ARPT   LGT RAIN  73  72  94 SW13      29.67F
LORAIN-ELYRIA  LGT RAIN  73  68  84 W9        29.67F
ASHTABULA      CLOUDY    70  70 100 S9        29.68F
AKRON-CANTON   CLOUDY    75  70  84 SW16      29.72F
WOOSTER        CLOUDY    74  71  91 SW12      29.71F
MANSFIELD      CLOUDY    74  72  93 SW14      29.71F
YOUNGSTOWN     CLOUDY    71  68  90 S10       29.72F
$$

OHZ042-051>053-060>062-070>072-077>081-231500-
  SOUTHWEST OHIO

CITY           SKY/WX    TMP DP  RH WIND       PRES   REMARKS
CINC-COVINGTON CLOUDY    77  73  87 SW17G29   29.76F
CINC-LUNKEN    CLOUDY    78  75  90 SW14      29.76F
HAMILTON       CLOUDY    77  75  93 SW10G16   29.75S
DAYTON         HVY RAIN  73  72  96 SW14G21   29.74S VSB 1
WRIGHT-PAT AFB TSTM      73  73 100 S17       29.73S FOG
DAYTON GENERAL RAIN      74  72  93 SW10      29.75S FOG
WILMINGTON     CLOUDY    74  74 100 SW14G25   29.76S
$$

OHZ036-037-039>041-045>050-054>059-063>069-073>076-082>088-231500-
  CENTRAL AND SOUTHEAST OHIO

CITY           SKY/WX    TMP DP  RH WIND       PRES   REMARKS
COLUMBUS       LGT RAIN  75  74  96 SW7       29.74S
OSU AIRPORT    RAIN      74  74 100 SW12      29.74S FOG
BOLTON FIELD   LGT RAIN  73  73 100 SW14      29.76S
RICKENBACK AFB LGT RAIN  72  73 100 SW14G25   29.75S
NEWARK         LGT RAIN  74  72  93 SW10      29.74F FOG
MARION         LGT RAIN  74  71  91 SW13      29.70F
LANCASTER      LGT RAIN  73  72  96 SW9       29.77S FOG
ZANESVILLE     RAIN      73  71  93 SW10      29.76F FOG
NEW PHILLY     NOT AVBL
$$




USA.gov is the U.S. government's official web portal to all federal, state and local government web resources and services.